Lille, France

2:41 PM CET on December 16, 2017 (GMT +0100)
Lesquin

Weather History for LFQQ - December, 2013

Change the Weather History Date:

Monday, December 16, 2013

  Actual Average Record
Temperature  
Mean Temperature 48 °F -  
Max Temperature 51 °F 41 °F 57 °F (2015)
Min Temperature 44 °F 33 °F 26 °F (1997)
Degree Days  
Heating Degree Days 18    
Moisture  
Dew Point 39 °F    
Average Humidity 69    
Maximum Humidity 87    
Minimum Humidity 42    
Precipitation  
Precipitation 0.00 in - - ()
Sea Level Pressure  
Sea Level Pressure 30.19 in    
Wind  
Wind Speed 13 mph ()    
Max Wind Speed 20 mph    
Max Gust Speed -    
Visibility 9.4 miles    
Events      
Averages and records for this station are not official NWS values.
T = Trace of Precipitation, MM = Missing Value Source: Averaged Metar Reports

Daily Weather History Graph

Daily Weather History Graph

Search for Another Location

Airport or City:

Trip Planner

Search our weather history database for the weather conditions in past years. The results will help you decide how hot, cold, wet, or windy it might be!

Date:

Astronomy

Dec. 16, 2013 Rise Set
Actual Time 8:43 AM CET 4:43 PM CET
Civil Twilight 8:03 AM CET 5:22 PM CET
Nautical Twilight 7:21 AM CET 6:04 PM CET
Astronomical Twilight 6:41 AM CET 6:44 PM CET
Moon 4:27 PM CET 7:31 AM CET
Length of Visible Light 9h 18m
Length of Day
8h 00m
Waxing Gibbous, 99% of the Moon is Illuminated
Dec 16
Waxing Gibbous
Dec 17
Full
Dec 25
Last Quarter
Jan 1
New
Jan 8
First Quarter

Hourly Weather History & Observations

Time (CET) Temp. Windchill Dew Point Humidity Pressure Visibility Wind Dir Wind Speed Gust Speed Precip Events Conditions
12:00 AM 46.4 °F 39.8 °F 41.0 °F 81% 30.24 in 6.2 mi South 16.1 mph - N/A   Mostly Cloudy
12:30 AM 46.4 °F 40.1 °F 41.0 °F 81% 30.24 in 6.2 mi South 15.0 mph - N/A   Mostly Cloudy
1:00 AM 46 °F - 40 °F 71% 30.25 in 19 mi South 16.1 mph - -   Mostly Cloudy
1:00 AM 46.4 °F 39.5 °F 39.2 °F 76% 30.24 in 6.2 mi South 17.3 mph - N/A   Mostly Cloudy
1:30 AM 46.4 °F 39.0 °F 39.2 °F 76% 30.24 in 6.2 mi South 19.6 mph - N/A   Overcast
2:00 AM 46.4 °F 40.1 °F 39.2 °F 76% 30.24 in 6.2 mi South 15.0 mph - N/A   Overcast
2:30 AM 46.4 °F 39.8 °F 41.0 °F 81% 30.21 in 6.2 mi South 16.1 mph - N/A   Overcast
3:00 AM 46.4 °F 39.5 °F 41.0 °F 81% 30.21 in 6.2 mi South 17.3 mph - N/A   Overcast
3:30 AM 46.4 °F 39.2 °F 42.8 °F 87% 30.21 in 6.2 mi South 18.4 mph - N/A   Overcast
4:00 AM 46 °F - 42 °F 83% 30.22 in 12 mi South 19.6 mph - -   Clear
4:00 AM 46.4 °F 39.0 °F 42.8 °F 87% 30.21 in 6.2 mi South 19.6 mph - N/A   Mostly Cloudy
5:00 AM 46.4 °F 39.8 °F 41.0 °F 81% 30.21 in 6.2 mi South 16.1 mph - N/A   Mostly Cloudy
5:30 AM 46.4 °F 40.4 °F 41.0 °F 81% 30.18 in 6.2 mi South 13.8 mph - N/A   Mostly Cloudy
6:00 AM 46.4 °F 40.1 °F 41.0 °F 81% 30.18 in 6.2 mi South 15.0 mph - N/A   Mostly Cloudy
6:30 AM 46.4 °F 40.1 °F 39.2 °F 76% 30.18 in 6.2 mi South 15.0 mph - N/A   Mostly Cloudy
7:00 AM 45 °F - 39 °F 72% 30.22 in 19 mi South 15.0 mph - -   Partly Cloudy
7:00 AM 46.4 °F 40.1 °F 39.2 °F 76% 30.21 in 6.2 mi South 15.0 mph - N/A   Mostly Cloudy
7:30 AM 44.6 °F 38.1 °F 39.2 °F 81% 30.21 in 6.2 mi South 13.8 mph - N/A   Mostly Cloudy
8:00 AM 44.6 °F 38.4 °F 37.4 °F 76% 30.18 in 6.2 mi South 12.7 mph - N/A   Scattered Clouds
8:30 AM 44.6 °F 38.4 °F 37.4 °F 76% 30.18 in - South 12.7 mph - N/A   Clear
9:00 AM 44.6 °F 39.7 °F 37.4 °F 76% 30.21 in - SSE 9.2 mph - N/A   Clear
9:30 AM 44.6 °F 39.2 °F 37.4 °F 76% 30.21 in - South 10.4 mph - N/A   Clear
10:00 AM 45 °F - 38 °F 68% 30.22 in 25 mi South 10.4 mph - -   Clear
10:00 AM 44.6 °F 39.7 °F 37.4 °F 76% 30.21 in - South 9.2 mph - N/A   Clear
10:30 AM 46.4 °F 41.1 °F 37.4 °F 71% 30.18 in - SSE 11.5 mph - N/A   Clear
11:00 AM 48.2 °F - 37.4 °F 66% 30.18 in - South 12.7 mph - N/A   Clear
11:30 AM 48.2 °F - 35.6 °F 62% 30.18 in - South 16.1 mph - N/A   Clear
12:30 PM 50.0 °F - 35.6 °F 58% 30.18 in - South 16.1 mph - N/A   Clear
1:00 PM 51 °F - 35 °F 42% 30.19 in 19 mi South 15.0 mph - -   Scattered Clouds
1:00 PM 50.0 °F - 35.6 °F 58% 30.18 in - South 15.0 mph - N/A   Clear
1:30 PM 51.8 °F - 35.6 °F 54% 30.15 in - South 13.8 mph - N/A   Clear
2:00 PM 51.8 °F - 35.6 °F 54% 30.15 in - South 11.5 mph - N/A   Clear
2:30 PM 51.8 °F - 35.6 °F 54% 30.15 in 6.2 mi South 8.1 mph - N/A   Mostly Cloudy
3:00 PM 51.8 °F - 35.6 °F 54% 30.15 in - South 10.4 mph - N/A   Clear
3:14 PM 50.0 °F - 35.6 °F 58% 30.15 in 6.2 mi South 11.5 mph - N/A   Partly Cloudy
3:30 PM 50.0 °F - 35.6 °F 58% 30.15 in - South 11.5 mph - N/A   Clear
4:00 PM 50 °F - 36 °F 49% 30.19 in 19 mi South 10.4 mph - -   Mostly Cloudy
4:00 PM 50.0 °F - 37.4 °F 62% 30.18 in 6.2 mi South 10.4 mph - N/A   Mostly Cloudy
4:30 PM 50.0 °F - 37.4 °F 62% 30.15 in 6.2 mi South 11.5 mph - N/A   Mostly Cloudy
5:00 PM 49 °F - 38 °F 56% 30.19 in 19 mi South 11.5 mph - -   Mostly Cloudy
5:00 PM 50.0 °F - 39.2 °F 66% 30.18 in 6.2 mi South 11.5 mph - N/A   Mostly Cloudy
5:30 PM 50.0 °F - 39.2 °F 66% 30.18 in 6.2 mi South 10.4 mph - N/A   Mostly Cloudy
6:00 PM 49 °F - 40 °F 61% 30.21 in 19 mi South 8.1 mph - -   Mostly Cloudy
6:00 PM 50.0 °F - 39.2 °F 66% 30.18 in 6.2 mi South 8.1 mph - N/A   Mostly Cloudy
6:30 PM 50.0 °F - 41.0 °F 71% 30.18 in 6.2 mi South 11.5 mph - N/A   Mostly Cloudy
7:00 PM 50 °F - 40 °F 60% 30.22 in 19 mi South 9.2 mph - -   Mostly Cloudy
7:00 PM 50.0 °F - 41.0 °F 71% 30.18 in 6.2 mi South 10.4 mph - N/A   Mostly Cloudy
7:30 PM 50.0 °F - 39.2 °F 66% 30.21 in 6.2 mi South 11.5 mph - N/A   Mostly Cloudy
8:00 PM 49 °F - 40 °F 61% 30.22 in 19 mi South 12.7 mph - -   Mostly Cloudy
8:00 PM 50.0 °F - 39.2 °F 66% 30.21 in 6.2 mi South 13.8 mph - N/A   Mostly Cloudy
8:30 PM 48.2 °F - 39.2 °F 71% 30.18 in 6.2 mi South 12.7 mph - N/A   Mostly Cloudy
9:00 PM 48 °F - 39 °F 63% 30.21 in 19 mi South 12.7 mph - -   Mostly Cloudy
9:00 PM 48.2 °F - 39.2 °F 71% 30.18 in 6.2 mi South 12.7 mph - N/A   Mostly Cloudy
9:30 PM 46.4 °F 41.1 °F 39.2 °F 76% 30.18 in 6.2 mi South 11.5 mph - N/A   Scattered Clouds
10:00 PM 46 °F - 39 °F 67% 30.21 in 19 mi South 9.2 mph - -   Scattered Clouds
10:00 PM 46.4 °F 41.9 °F 39.2 °F 76% 30.18 in 6.2 mi South 9.2 mph - N/A   Partly Cloudy
10:30 PM 46.4 °F 42.4 °F 39.2 °F 76% 30.18 in 6.2 mi South 8.1 mph - N/A   Partly Cloudy
11:00 PM 45 °F - 38 °F 68% 30.20 in 19 mi South 8.1 mph - -   Scattered Clouds
11:00 PM 44.6 °F 40.2 °F 37.4 °F 76% 30.18 in 6.2 mi South 8.1 mph - N/A   Scattered Clouds
11:30 PM 46.4 °F 41.1 °F 37.4 °F 71% 30.18 in 6.2 mi South 11.5 mph - N/A   Scattered Clouds